Flag for United Kingdom Weather past 2 weeks in Salisbury, England, United Kingdom

Now
46 °F

Passing clouds.


Feels Like: 44 °F
Forecast: 46 / 68 °F
Wind: 5 mph from Northwest

Location: Boscombe Down

Current Time: Jul 30, 2015 at 6:14:24 AM

Latest Report: Jul 30, 2015 at 5:50 AM


Visibility: N/A

Pressure: 30.04 "Hg

Humidity: 93%

Dew point: 45 °F

Location of SalisburyLocation

Historic Weather in Salisbury — Graph

°F

Salisbury temperature yesterday

Maximum temperature yesterday: 63 °F (at 1:50 PM)
Minimum temperature yesterday: 48 °F (at 4:50 AM)
Average temperature yesterday: 54 °F

Past Weeks' High & Low Weather Summary

 TemperatureHumidityPressure
High73 °F (Jul 16, 4:50 PM)100% (Jul 15, 5:50 AM)30.09 "Hg (Jul 15, 5:50 AM)
Low45 °F (Jul 30, 3:50 AM)37% (Jul 28, 4:50 PM)29.45 "Hg (Jul 26, 4:50 PM)
Average60 °F78%29.88 "Hg
* Reported Jul 15 5:50 AM — Jul 30 4:50 AM, Salisbury, Weather by CustomWeather, © 2015

Note: Actual official high and low records may vary slightly from our data, if they occured in-between our weather recording intervals... More about our weather records

Advertising

Salisbury weather history for previous 24 hours

 ConditionsComfort  
Time TempWeatherWind HumidityBarometerVisibility
4:50 AM
Thu, Jul 30
45 °FPassing clouds.6 mph93%30.04 "HgN/A
3:50 AM45 °FQuite cool.7 mph93%30.04 "HgN/A
2:50 AM46 °FCool.7 mph93%30.04 "HgN/A
1:50 AM46 °FCool.7 mph93%30.04 "HgN/A
12:50 AM48 °FCool.7 mph87%30.04 "HgN/A
11:50 PM
Wed, Jul 29
48 °FCool.7 mph94%30.01 "HgN/A
10:50 PM50 °FPassing clouds.6 mph94%30.01 "HgN/A
9:50 PM52 °FPassing clouds.8 mph94%29.98 "HgN/A
8:50 PM54 °FPartly sunny.6 mph94%29.98 "HgN/A
7:50 PM55 °FPassing clouds.5 mph88%29.95 "HgN/A
6:50 PM55 °FSprinkles. Partly sunny.10 mph88%29.95 "HgN/A
5:50 PM54 °FSprinkles. Partly sunny.13 mph94%29.95 "HgN/A
4:50 PM57 °FRain showers. Broken clouds.10 mph82%29.92 "HgN/A
3:50 PM63 °FBroken clouds.7 mph64%29.92 "HgN/A
2:50 PM63 °FSprinkles. Broken clouds.15 mph52%29.89 "HgN/A
1:50 PM63 °FScattered clouds.13 mph59%29.89 "HgN/A
12:50 PM61 °FBroken clouds.14 mph63%29.89 "HgN/A
11:50 AM59 °FScattered clouds.14 mph63%29.86 "HgN/A
10:50 AM57 °FScattered clouds.18 mph67%29.86 "HgN/A
9:50 AM59 °FScattered clouds.15 mph68%29.86 "HgN/A
8:50 AM55 °FScattered clouds.12 mph77%29.86 "HgN/A
7:50 AM54 °FScattered clouds.12 mph88%29.83 "HgN/A
6:50 AM50 °FSunny.8 mph94%29.83 "Hg10 mi
Weather by CustomWeather, © 2015

See weather overviewHow to use our weather pages